Погода в Гулистане

Узбекистан     40°18′49″N   67°58′34″E
темп.,
°C
ветер,
м/с
пор.,
м/с
влажн.,
%
обл.,
%
осадки,
мм/ч
давл.,
гПа
погр.,
м
3 марта, ср
ср323:00+9сз3448100 0.0 1025230
02:00+8сз2358100 0.0 102487
05:00+7ссз3570100 0.0 1024250
08:00+5сз237793 0.0 1024135
11:00+9ссз116150 0.0 1023584
14:00+13вюв22480 0.0 1020684
17:00+15всв22430 0.0 10201162
20:00+12св345310 0.0 102169
4 марта, чт
чт423:00+10сз22655 0.0 102138
02:00+8з22680 0.0 102022
05:00+8юв22680 0.0 102022
08:00+8вюв226965 0.1 101942
11:00+14вюв224582 0.1 1018367
14:00+17сз4538100 0.1 10161749
17:00+16вюв234499 0.7 1017839
20:00+13ю456272 1.7 1021118
5 марта, пт
пт523:00+9сз6107486 2.8 1025837
02:00+6ссз4683100 1.4 1027614
05:00+5с2482100 8.3 1030558
08:00+5зсз017795 0.1 1031468
11:00+7всв336391 0.1 1029876
14:00+11в44420 0.0 10261272
17:00+12в56410 0.0 10231207
20:00+9всв35510 0.0 1023133
6 марта, сб
сб623:00+8в225634 0.0 102127
02:00+7св3960100 0.0 1017286
05:00+8всв5156486 0.0 1014481
08:00+8всв41563100 0.0 1012729
11:00+12всв5939100 0.0 1011932
14:00+14с3336100 0.0 1011442
17:00+11ссв4460100 0.8 1012274
20:00+10ю1164100 0.0 101423
7 марта, вс
вс723:00+10ююз1163100 0.0 101622
02:00+9зсз41266100 0.0 10171237
05:00+8з91367100 0.4 10191029
08:00+8з6966100 0.5 10201097
11:00+10з4653100 0.6 10201241
14:00+11ююз2450100 0.0 10191302
17:00+11ююв3360100 0.0 1017594
20:00+8юв347017 0.0 1018101